STARLINK-31913, 59667

Orbit data source: Space-Track

STARLINK-31913, 59667 is a payload satellite owned by SpaceX/Seattle (US) in LEO that was launched on Mon, 06 May 2024 UTC via an FALCON 9 launch vehicle from the Air Force Eastern Test Range (AFETR). Payload-class satellites include a variety of spacecraft equipped with specific instruments for various scientific and technological missions. These include communications satellites like Starlink; space stations such as the ISS; scientific satellites like the Hubble; Earth observation satellites from companies like Planet Labs, Umbra, and HawkEye 360; GPS; miniature CubeSats for education and research; and military/defense satellites.

Loading next visibility...
Identifier
59667, 2024-084P
Orbit
LEO
Country
Flag of USUS
Related business
Manufacturer
SpaceX/Seattle
Mission
Operational Commercial Communications
Bus & Motor
STARLINK V2M, Unknown motor
Mass
730 kg wet, ~700 kg dry
Launch date (UTC)
2024-05-06 (2 years ago)
Launch vehicle
FALCON 9
Launch site
Air Force Eastern Test Range (AFETR)
Object type
Payload
Rocket body
Debris
Shape & HBR
Box + 2 Pan, 17.7 m
Radar Cross Section
33.884 m², Large (>1 m²)

Expand to show TLE details & history
Last TLE update: 6 hours ago

TLE from 6 hours ago
0 STARLINK-31913
1 59667U 24084P   26073.51655317  .00000883  00000-0  41608-4 0  9994
2 59667  43.0025  10.8803 0001036 261.3144  98.7591 15.27579880105153
Epoch: 2026-03-14T12:23Z
TLE epoch observation values (Epoch: 2026-03-14T12:23:50.193Z)
Latitude
0.00001°
Longitude
12.78456°
Altitude
482.933 km
Speed
7.626 km/s
True Right ascension
00h 43m 31s
True Declination
0° 00' 00"
Sunlit
Object was in daylight at epoch
Visualization orbit readout
Latitude
Unknown
Longitude
Unknown
Altitude
Unknown
Speed
Unknown
Apparent Right ascension
Unknown
Apparent Declination
Unknown
Sunlit
N/A
Visualization observer readout
Local Sidereal Time
22:40:16
Azimuth
Unknown
Elevation
Unknown
Doppler factor
Unknown
Orbital elements
Apogee altitude
485.705 km
Perigee altitude
484.283 km
Semi-major axis
6,863.131 km
Eccentricity
0.0001
Inclination
43.0025°
RAAN
10.8803°
Arg. of periapsis
261.3144°
True anomaly
98.77083°
Mean anomaly
98.7591°
Eccentric anomaly
98.76497°
Mean motion
3.81733 °/min
Orbital period
94.31 mins
BSTAR
0.000041608
Loading maneuver chart data...
Computing Atmospheric mass density...
Loading historical data...
Loading historical data...
Loading historical data...
Loading historical data...
Loading historical data...
Loading historical data...
Loading historical data...

Documentation

Showing up to 5 results
|